Location: Unspecified
(0.0000°N, 0.0000°E)
Time: 21:14:21
(UTC+02:00)

CZ-4B DEB - Visible Passes

Search period start: 01 July 2015 00:00
Search period end: 11 July 2015 00:00
Orbit: 478 x 490 km, 97.5° (Epoch: 30 June)

Date Brightness Start Highest point End Pass type
(mag) Time Alt. Az. Time Alt. Az. Time Alt. Az.
01 Jul 4.1 21:09:55 10° S 21:13:20 45° W 21:16:43 10° NNW visible
02 Jul 3.0 20:45:17 10° SSE 20:48:48 61° E 20:52:17 10° N visible
04 Jul 5.5 21:30:04 10° SSW 21:32:53 21° W 21:35:35 10° NW visible
05 Jul 3.6 21:04:46 10° S 21:08:16 57° W 21:11:44 10° NNW visible
06 Jul 3.3 20:40:14 10° SSE 20:43:40 48° E 20:47:04 10° N visible
07 Jul 6.3 21:51:28 10° WSW 21:52:19 10° W 21:52:54 10° W visible
08 Jul 5.1 21:24:33 10° SSW 21:27:36 26° W 21:30:35 10° NW visible
09 Jul 3.2 20:59:23 10° S 21:02:56 74° W 21:06:27 10° NNW visible
10 Jul 3.6 20:34:57 10° SSE 20:38:15 37° E 20:41:34 10° N visible
